TimeCDT,TemperatureF,Dew PointF,Humidity,Sea Level PressureIn,VisibilityMPH,Wind Direction,Wind SpeedMPH,Gust SpeedMPH,PrecipitationIn,Events,Conditions,WindDirDegrees,DateUTC
12:15 AM,47.1,39.4,74,30.21,10.0,NW,9.2,-,N/A,,Clear,310,2013-04-27 05:15:00
12:35 AM,45.0,38.3,77,30.21,10.0,WNW,6.9,-,N/A,,Clear,290,2013-04-27 05:35:00
12:55 AM,45.1,38.3,77,30.21,10.0,WNW,6.9,-,N/A,,Clear,300,2013-04-27 05:55:00
1:15 AM,42.3,36.5,80,30.20,10.0,NW,8.1,-,N/A,,Clear,310,2013-04-27 06:15:00
1:35 AM,42.8,36.7,79,30.20,10.0,NW,5.8,-,N/A,,Clear,320,2013-04-27 06:35:00
1:55 AM,41.0,35.6,81,30.19,10.0,WNW,8.1,-,N/A,,Clear,290,2013-04-27 06:55:00
2:15 AM,43.0,36.7,78,30.19,10.0,WNW,9.2,-,N/A,,Clear,300,2013-04-27 07:15:00
2:35 AM,41.5,35.6,79,30.19,10.0,WNW,9.2,-,N/A,,Clear,300,2013-04-27 07:35:00
2:55 AM,42.4,36.1,78,30.19,10.0,NW,9.2,-,N/A,,Clear,320,2013-04-27 07:55:00
3:15 AM,40.6,35.1,80,30.19,10.0,NW,8.1,-,N/A,,Clear,320,2013-04-27 08:15:00
3:55 AM,42.3,36.1,79,30.18,10.0,WNW,9.2,-,N/A,,Clear,300,2013-04-27 08:55:00
4:15 AM,42.4,36.0,78,30.19,10.0,WNW,9.2,-,N/A,,Clear,290,2013-04-27 09:15:00
4:35 AM,42.4,35.8,77,30.19,10.0,WNW,6.9,-,N/A,,Clear,290,2013-04-27 09:35:00
4:55 AM,42.3,36.0,78,30.19,10.0,WNW,9.2,-,N/A,,Clear,290,2013-04-27 09:55:00
5:15 AM,43.2,36.7,78,30.19,10.0,WNW,8.1,-,N/A,,Clear,300,2013-04-27 10:15:00
6:35 AM,40.1,34.7,81,30.19,10.0,WNW,8.1,-,N/A,,Clear,300,2013-04-27 11:35:00
6:55 AM,39.6,34.2,81,30.19,10.0,WNW,9.2,-,N/A,,Clear,300,2013-04-27 11:55:00
7:15 AM,39.7,34.2,80,30.20,10.0,WNW,10.4,-,N/A,,Clear,290,2013-04-27 12:15:00
7:35 AM,41.5,35.2,78,30.20,10.0,WNW,6.9,-,N/A,,Clear,300,2013-04-27 12:35:00
7:55 AM,43.7,36.5,76,30.20,10.0,NW,6.9,-,N/A,,Clear,310,2013-04-27 12:55:00
8:15 AM,46.4,37.6,71,30.20,10.0,WNW,6.9,-,N/A,,Clear,300,2013-04-27 13:15:00
8:35 AM,49.6,39.2,67,30.20,10.0,WNW,5.8,-,N/A,,Clear,300,2013-04-27 13:35:00
8:55 AM,54.0,39.7,59,30.21,10.0,WNW,5.8,-,N/A,,Clear,300,2013-04-27 13:55:00
9:15 AM,57.2,40.1,53,30.21,10.0,West,5.8,-,N/A,,Clear,280,2013-04-27 14:15:00
9:35 AM,59.9,39.9,48,30.21,10.0,West,3.5,-,N/A,,Clear,280,2013-04-27 14:35:00
9:55 AM,62.1,40.1,44,30.21,10.0,WNW,3.5,-,N/A,,Clear,290,2013-04-27 14:55:00
10:15 AM,63.5,39.9,42,30.20,10.0,WNW,3.5,-,N/A,,Clear,290,2013-04-27 15:15:00
10:35 AM,63.9,38.5,39,30.20,10.0,Calm,Calm,-,N/A,,Clear,0,2013-04-27 15:35:00
10:55 AM,65.3,36.5,34,30.20,10.0,Calm,Calm,-,N/A,,Clear,0,2013-04-27 15:55:00
11:15 AM,66.6,34.2,30,30.20,10.0,SW,5.8,-,N/A,,Clear,230,2013-04-27 16:15:00
11:35 AM,68.5,36.1,30,30.20,10.0,SW,6.9,-,N/A,,Clear,220,2013-04-27 16:35:00
11:55 AM,68.7,35.2,29,30.20,10.0,SSW,4.6,-,N/A,,Clear,200,2013-04-27 16:55:00
12:15 PM,69.4,36.3,30,30.20,10.0,Calm,Calm,-,N/A,,Clear,0,2013-04-27 17:15:00
12:35 PM,70.3,36.9,29,30.19,10.0,West,11.5,16.1,N/A,,Clear,270,2013-04-27 17:35:00
12:55 PM,70.9,35.1,27,30.19,10.0,SW,9.2,16.1,N/A,,Clear,220,2013-04-27 17:55:00
1:15 PM,71.4,34.0,25,30.17,10.0,SSW,10.4,-,N/A,,Clear,210,2013-04-27 18:15:00
1:35 PM,72.3,32.0,23,30.16,10.0,West,6.9,16.1,N/A,,Clear,260,2013-04-27 18:35:00
1:55 PM,72.9,30.6,21,30.15,10.0,West,9.2,-,N/A,,Clear,260,2013-04-27 18:55:00
2:15 PM,74.1,29.3,19,30.14,10.0,SW,16.1,-,N/A,,Clear,230,2013-04-27 19:15:00
2:35 PM,75.6,28.8,18,30.14,10.0,WSW,11.5,20.7,N/A,,Clear,240,2013-04-27 19:35:00
2:55 PM,75.2,28.4,18,30.12,10.0,West,8.1,18.4,N/A,,Clear,260,2013-04-27 19:55:00
3:15 PM,75.7,28.2,17,30.11,10.0,WSW,16.1,21.9,N/A,,Clear,250,2013-04-27 20:15:00
3:35 PM,77.2,27.7,16,30.10,10.0,SW,9.2,19.6,N/A,,Clear,220,2013-04-27 20:35:00
3:55 PM,77.5,27.7,16,30.08,10.0,WSW,10.4,19.6,N/A,,Clear,240,2013-04-27 20:55:00
4:15 PM,77.9,27.1,15,30.07,10.0,WSW,9.2,19.6,N/A,,Clear,250,2013-04-27 21:15:00
4:35 PM,78.1,27.3,15,30.06,10.0,SW,11.5,23.0,N/A,,Clear,220,2013-04-27 21:35:00
4:55 PM,78.4,25.2,14,30.05,10.0,WSW,8.1,19.6,N/A,,Clear,240,2013-04-27 21:55:00
5:15 PM,76.1,24.3,15,30.04,10.0,WNW,6.9,11.5,N/A,,Clear,290,2013-04-27 22:15:00
5:35 PM,73.4,27.9,18,30.05,7.0,NE,15.0,54.1,N/A,,Scattered Clouds,40,2013-04-27 22:35:00
5:55 PM,73.9,26.4,17,30.04,10.0,West,5.8,-,N/A,,Scattered Clouds,280,2013-04-27 22:55:00
6:15 PM,76.1,27.0,16,30.03,10.0,SSE,3.5,-,N/A,,Clear,150,2013-04-27 23:15:00
6:35 PM,76.1,25.5,15,30.02,10.0,WNW,3.5,-,N/A,,Clear,290,2013-04-27 23:35:00
6:55 PM,77.4,25.5,15,30.02,10.0,WSW,6.9,-,N/A,,Clear,240,2013-04-27 23:55:00
7:15 PM,77.2,22.8,13,30.02,10.0,SW,10.4,-,N/A,,Clear,230,2013-04-28 00:15:00
7:35 PM,76.1,22.5,14,30.02,10.0,SW,10.4,-,N/A,,Clear,230,2013-04-28 00:35:00
7:55 PM,74.8,24.8,16,30.01,10.0,WSW,9.2,-,N/A,,Clear,250,2013-04-28 00:55:00
8:15 PM,70.9,24.6,18,30.01,10.0,SW,6.9,-,N/A,,Clear,230,2013-04-28 01:15:00
8:35 PM,68.4,25.2,20,30.01,10.0,SW,6.9,-,N/A,,Clear,230,2013-04-28 01:35:00
8:55 PM,63.0,23.5,22,30.01,10.0,SW,8.1,-,N/A,,Clear,220,2013-04-28 01:55:00
9:15 PM,59.5,24.8,26,30.01,10.0,SSW,9.2,-,N/A,,Clear,210,2013-04-28 02:15:00
9:35 PM,61.0,23.2,24,30.01,10.0,SW,10.4,-,N/A,,Clear,220,2013-04-28 02:35:00
9:55 PM,61.7,22.8,23,30.02,10.0,SSW,9.2,-,N/A,,Clear,210,2013-04-28 02:55:00
10:15 PM,59.4,21.4,23,30.02,10.0,SW,10.4,-,N/A,,Clear,220,2013-04-28 03:15:00
10:35 PM,57.7,23.7,27,30.02,10.0,SSW,12.7,-,N/A,,Clear,200,2013-04-28 03:35:00
10:55 PM,59.0,25.7,28,30.02,10.0,South,11.5,-,N/A,,Clear,190,2013-04-28 03:55:00
11:15 PM,59.5,27.1,29,30.02,10.0,South,10.4,-,N/A,,Clear,190,2013-04-28 04:15:00
11:35 PM,59.0,27.3,30,30.02,10.0,South,12.7,-,N/A,,Clear,190,2013-04-28 04:35:00
11:55 PM,57.7,27.5,31,30.02,10.0,South,10.4,-,N/A,,Clear,170,2013-04-28 04:55:00